User: anonymous   Login
Location: Okie-Tex Star Party
(36.8978°N, 102.9520°W)
Time: 18:29:52
(UTC-06:00)
Language:

Hamsat - Orbit

View from above orbital plane
View from above orbital plane
View from above satellite
View from above satellite

Ground track
Ground track

The orbit data is extracted from the following two-line orbital elements,

1 28650U 05017B   16042.92838565 +.00001712 +00000-0 +19124-3 0  9994
2 28650 097.5965 029.9032 0022901 320.7491 039.2065 14.88056361583024
Epoch (UTC): 11 February 2016 22:16:52
Eccentricity: 0.0022901
inclination: 97.5965°
perigee height: 588 km
apogee height: 620 km
right ascension of ascending node: 29.9032°
argument of perigee: 320.7491°
revolutions per day: 14.88056361
mean anomaly at epoch: 39.2065°
orbit number at epoch: 58302

The dashed part of the orbit path shows where the satellite is in the earth's shadow,  

DLR